Time,TemperatureF,DewpointF,PressureIn,WindDirection,WindDirectionDegrees,WindSpeedMPH,WindSpeedGustMPH,Humidity,HourlyPrecipIn,Conditions,Clouds,dailyrainin,SoftwareType,DateUTC
2013-02-14 00:50:00,51.0,42.0,30.04,North,10,16.0,20.0,69,-99.99,,,-99.99,,2013-02-14 06:50:00,
2013-02-14 01:21:00,51.0,42.0,30.04,North,10,16.0,20.0,69,-99.99,,,-99.99,,2013-02-14 07:21:00,
2013-02-14 01:31:00,51.0,42.0,30.04,North,10,16.0,20.0,69,-99.99,,,-99.99,,2013-02-14 07:31:00,
2013-02-14 01:41:00,51.0,42.0,30.04,North,10,16.0,20.0,69,-99.99,,,-99.99,,2013-02-14 07:41:00,
2013-02-14 01:50:00,51.0,42.0,30.02,North,10,18.0,20.0,72,-99.99,,,-99.99,,2013-02-14 07:50:00,
2013-02-14 02:11:00,51.0,42.0,30.02,North,10,18.0,20.0,72,-99.99,,,-99.99,,2013-02-14 08:11:00,
2013-02-14 02:21:00,51.0,42.0,30.02,North,10,18.0,20.0,72,-99.99,,,-99.99,,2013-02-14 08:21:00,
2013-02-14 02:31:00,51.0,42.0,30.02,North,10,18.0,20.0,72,-99.99,,,-99.99,,2013-02-14 08:31:00,
2013-02-14 02:43:00,51.0,42.0,30.02,North,10,18.0,20.0,72,-99.99,,,-99.99,,2013-02-14 08:43:00,
2013-02-14 02:50:00,50.0,42.0,30.04,North,10,13.0,20.0,74,-99.99,,,-99.99,,2013-02-14 08:50:00,
2013-02-14 03:21:00,50.0,42.0,30.04,North,10,13.0,20.0,74,-99.99,,,-99.99,,2013-02-14 09:21:00,
2013-02-14 03:31:00,50.0,42.0,30.04,North,10,13.0,20.0,74,-99.99,,,-99.99,,2013-02-14 09:31:00,
2013-02-14 03:41:00,50.0,42.0,30.04,North,10,13.0,20.0,74,-99.99,,,-99.99,,2013-02-14 09:41:00,
2013-02-14 03:50:00,50.0,41.0,30.06,North,10,13.0,18.0,71,-99.99,,,-99.99,,2013-02-14 09:50:00,
2013-02-14 04:21:00,50.0,41.0,30.06,North,10,13.0,18.0,71,-99.99,,,-99.99,,2013-02-14 10:21:00,
2013-02-14 04:31:00,50.0,41.0,30.06,North,10,13.0,18.0,71,-99.99,,,-99.99,,2013-02-14 10:31:00,
2013-02-14 04:41:00,50.0,41.0,30.06,North,10,13.0,18.0,71,-99.99,,,-99.99,,2013-02-14 10:41:00,
2013-02-14 04:50:00,50.0,40.0,30.06,NNE,20,16.0,18.0,69,-99.99,,,-99.99,,2013-02-14 10:50:00,
2013-02-14 05:11:00,50.0,40.0,30.06,NNE,20,16.0,18.0,69,-99.99,,,-99.99,,2013-02-14 11:11:00,
2013-02-14 05:21:00,50.0,40.0,30.06,NNE,20,16.0,18.0,69,-99.99,,,-99.99,,2013-02-14 11:21:00,
2013-02-14 05:31:00,50.0,40.0,30.06,NNE,20,16.0,18.0,69,-99.99,,,-99.99,,2013-02-14 11:31:00,
2013-02-14 05:41:00,50.0,40.0,30.06,NNE,20,16.0,18.0,69,-99.99,,,-99.99,,2013-02-14 11:41:00,
2013-02-14 05:50:00,49.0,40.0,30.07,NNE,20,16.0,20.0,70,-99.99,,,-99.99,,2013-02-14 11:50:00,
2013-02-14 06:11:00,49.0,40.0,30.07,NNE,20,16.0,20.0,70,-99.99,,,-99.99,,2013-02-14 12:11:00,
2013-02-14 06:21:00,49.0,40.0,30.07,NNE,20,16.0,20.0,70,-99.99,,,-99.99,,2013-02-14 12:21:00,
2013-02-14 06:31:00,49.0,40.0,30.07,NNE,20,16.0,20.0,70,-99.99,,,-99.99,,2013-02-14 12:31:00,
2013-02-14 06:41:00,49.0,40.0,30.07,NNE,20,16.0,20.0,70,-99.99,,,-99.99,,2013-02-14 12:41:00,
2013-02-14 06:50:00,48.0,41.0,30.10,North,10,16.0,20.0,75,-99.99,,,-99.99,,2013-02-14 12:50:00,
2013-02-14 07:11:00,48.0,41.0,30.10,North,10,16.0,20.0,75,-99.99,,,-99.99,,2013-02-14 13:11:00,
2013-02-14 07:21:00,48.0,41.0,30.10,North,10,16.0,20.0,75,-99.99,,,-99.99,,2013-02-14 13:21:00,
2013-02-14 07:31:00,48.0,41.0,30.10,North,10,16.0,20.0,75,-99.99,,,-99.99,,2013-02-14 13:31:00,
2013-02-14 07:41:00,48.0,41.0,30.10,North,10,16.0,20.0,75,-99.99,,,-99.99,,2013-02-14 13:41:00,
2013-02-14 07:50:00,48.0,40.0,30.12,NNE,30,16.0,20.0,73,-99.99,,,-99.99,,2013-02-14 13:50:00,
2013-02-14 08:21:00,48.0,40.0,30.12,NNE,30,16.0,20.0,73,-99.99,,,-99.99,,2013-02-14 14:21:00,
2013-02-14 08:31:00,48.0,40.0,30.12,NNE,30,16.0,20.0,73,-99.99,,,-99.99,,2013-02-14 14:31:00,
2013-02-14 08:41:00,48.0,40.0,30.12,NNE,30,16.0,20.0,73,-99.99,,,-99.99,,2013-02-14 14:41:00,
2013-02-14 08:50:00,48.0,40.0,30.13,NNE,30,16.0,20.0,74,-99.99,,,-99.99,,2013-02-14 14:50:00,
2013-02-14 09:11:00,48.0,40.0,30.13,NNE,30,16.0,20.0,74,-99.99,,,-99.99,,2013-02-14 15:11:00,
2013-02-14 09:21:00,48.0,40.0,30.13,NNE,30,16.0,20.0,74,-99.99,,,-99.99,,2013-02-14 15:21:00,
2013-02-14 09:31:00,48.0,40.0,30.13,NNE,30,16.0,20.0,74,-99.99,,,-99.99,,2013-02-14 15:31:00,
2013-02-14 09:41:00,48.0,40.0,30.13,NNE,30,16.0,20.0,74,-99.99,,,-99.99,,2013-02-14 15:41:00,
2013-02-14 09:50:00,49.0,40.0,30.16,NNE,30,13.0,16.0,71,-99.99,,,-99.99,,2013-02-14 15:50:00,
2013-02-14 10:21:00,49.0,40.0,30.16,NNE,30,13.0,16.0,71,-99.99,,,-99.99,,2013-02-14 16:21:00,
2013-02-14 10:31:00,49.0,40.0,30.16,NNE,30,13.0,16.0,71,-99.99,,,-99.99,,2013-02-14 16:31:00,
2013-02-14 10:41:00,49.0,40.0,30.16,NNE,30,13.0,16.0,71,-99.99,,,-99.99,,2013-02-14 16:41:00,
2013-02-14 10:50:00,49.0,40.0,30.14,NNE,30,13.0,16.0,69,-99.99,,,-99.99,,2013-02-14 16:50:00,
2013-02-14 11:11:00,49.0,40.0,30.14,NNE,30,13.0,16.0,69,-99.99,,,-99.99,,2013-02-14 17:11:00,
2013-02-14 11:21:00,49.0,40.0,30.14,NNE,30,13.0,16.0,69,-99.99,,,-99.99,,2013-02-14 17:21:00,
2013-02-14 11:31:00,49.0,40.0,30.14,NNE,30,13.0,16.0,69,-99.99,,,-99.99,,2013-02-14 17:31:00,
2013-02-14 11:41:00,49.0,40.0,30.14,NNE,30,13.0,16.0,69,-99.99,,,-99.99,,2013-02-14 17:41:00,
2013-02-14 11:50:00,49.0,38.0,30.12,NNE,20,11.0,16.0,66,-99.99,,,-99.99,,2013-02-14 17:50:00,
2013-02-14 12:11:00,49.0,38.0,30.12,NNE,20,11.0,16.0,66,-99.99,,,-99.99,,2013-02-14 18:11:00,
2013-02-14 12:22:00,49.0,38.0,30.12,NNE,20,11.0,16.0,66,-99.99,,,-99.99,,2013-02-14 18:22:00,
2013-02-14 12:31:00,49.0,38.0,30.12,NNE,20,11.0,16.0,66,-99.99,,,-99.99,,2013-02-14 18:31:00,
2013-02-14 12:41:00,49.0,38.0,30.12,NNE,20,11.0,16.0,66,-99.99,,,-99.99,,2013-02-14 18:41:00,
2013-02-14 12:50:00,50.0,40.0,30.11,North,10,9.0,13.0,68,-99.99,,,-99.99,,2013-02-14 18:50:00,
2013-02-14 13:11:00,50.0,40.0,30.11,North,10,9.0,13.0,68,-99.99,,,-99.99,,2013-02-14 19:11:00,
2013-02-14 13:21:00,50.0,40.0,30.11,North,10,9.0,13.0,68,-99.99,,,-99.99,,2013-02-14 19:21:00,
2013-02-14 13:31:00,50.0,40.0,30.11,North,10,9.0,13.0,68,-99.99,,,-99.99,,2013-02-14 19:31:00,
2013-02-14 13:41:00,50.0,40.0,30.11,North,10,9.0,13.0,68,-99.99,,,-99.99,,2013-02-14 19:41:00,
2013-02-14 13:50:00,50.0,41.0,30.08,North,10,9.0,13.0,70,-99.99,,,-99.99,,2013-02-14 19:50:00,
2013-02-14 14:11:00,50.0,41.0,30.08,North,10,9.0,13.0,70,-99.99,,,-99.99,,2013-02-14 20:11:00,
2013-02-14 14:21:00,50.0,41.0,30.08,North,10,9.0,13.0,70,-99.99,,,-99.99,,2013-02-14 20:21:00,
2013-02-14 14:31:00,50.0,41.0,30.08,North,10,9.0,13.0,70,-99.99,,,-99.99,,2013-02-14 20:31:00,
2013-02-14 14:41:00,50.0,41.0,30.08,North,10,9.0,13.0,70,-99.99,,,-99.99,,2013-02-14 20:41:00,
2013-02-14 14:50:00,51.0,41.0,30.07,North,360,7.0,11.0,69,-99.99,,,-99.99,,2013-02-14 20:50:00,
2013-02-14 15:11:00,51.0,41.0,30.07,North,360,7.0,11.0,69,-99.99,,,-99.99,,2013-02-14 21:11:00,
2013-02-14 15:21:00,51.0,41.0,30.07,North,360,7.0,11.0,69,-99.99,,,-99.99,,2013-02-14 21:21:00,
2013-02-14 15:31:00,51.0,41.0,30.07,North,360,7.0,11.0,69,-99.99,,,-99.99,,2013-02-14 21:31:00,
2013-02-14 15:41:00,51.0,41.0,30.07,North,360,7.0,11.0,69,-99.99,,,-99.99,,2013-02-14 21:41:00,
2013-02-14 15:50:00,53.0,42.0,30.05,NNW,340,9.0,9.0,65,-99.99,,,-99.99,,2013-02-14 21:50:00,
2013-02-14 16:11:00,53.0,42.0,30.05,NNW,340,9.0,9.0,65,-99.99,,,-99.99,,2013-02-14 22:11:00,
2013-02-14 16:21:00,53.0,42.0,30.05,NNW,340,9.0,9.0,65,-99.99,,,-99.99,,2013-02-14 22:21:00,
2013-02-14 16:31:00,53.0,42.0,30.05,NNW,340,9.0,9.0,65,-99.99,,,-99.99,,2013-02-14 22:31:00,
2013-02-14 16:41:00,53.0,42.0,30.05,NNW,340,9.0,9.0,65,-99.99,,,-99.99,,2013-02-14 22:41:00,
2013-02-14 16:50:00,56.0,42.0,30.05,NNW,340,9.0,11.0,60,-99.99,,,-99.99,,2013-02-14 22:50:00,
2013-02-14 17:21:00,56.0,42.0,30.05,NNW,340,9.0,11.0,60,-99.99,,,-99.99,,2013-02-14 23:21:00,
2013-02-14 17:31:00,56.0,42.0,30.05,NNW,340,9.0,11.0,60,-99.99,,,-99.99,,2013-02-14 23:31:00,
2013-02-14 17:41:00,56.0,42.0,30.05,NNW,340,9.0,11.0,60,-99.99,,,-99.99,,2013-02-14 23:41:00,
2013-02-14 17:50:00,55.0,44.0,30.07,NW,320,4.0,7.0,66,-99.99,,,-99.99,,2013-02-14 23:50:00,
2013-02-14 18:21:00,55.0,44.0,30.07,NW,320,4.0,7.0,66,-99.99,,,-99.99,,2013-02-15 00:21:00,
2013-02-14 18:31:00,55.0,44.0,30.07,NW,320,4.0,7.0,66,-99.99,,,-99.99,,2013-02-15 00:31:00,
2013-02-14 18:41:00,55.0,44.0,30.07,NW,320,4.0,7.0,66,-99.99,,,-99.99,,2013-02-15 00:41:00,
2013-02-14 18:50:00,56.0,41.0,30.09,North,10,7.0,11.0,55,-99.99,,,-99.99,,2013-02-15 00:50:00,
2013-02-14 19:11:00,56.0,41.0,30.09,North,10,7.0,11.0,55,-99.99,,,-99.99,,2013-02-15 01:11:00,
2013-02-14 19:21:00,56.0,41.0,30.09,North,10,7.0,11.0,55,-99.99,,,-99.99,,2013-02-15 01:21:00,
2013-02-14 19:31:00,56.0,41.0,30.09,North,10,7.0,11.0,55,-99.99,,,-99.99,,2013-02-15 01:31:00,
2013-02-14 19:41:00,56.0,41.0,30.09,North,10,7.0,11.0,55,-99.99,,,-99.99,,2013-02-15 01:41:00,
2013-02-14 19:50:00,57.0,41.0,30.09,NNE,30,9.0,16.0,55,-99.99,,,-99.99,,2013-02-15 01:50:00,
2013-02-14 20:21:00,57.0,41.0,30.09,NNE,30,9.0,16.0,55,-99.99,,,-99.99,,2013-02-15 02:21:00,
2013-02-14 20:31:00,57.0,41.0,30.09,NNE,30,9.0,16.0,55,-99.99,,,-99.99,,2013-02-15 02:31:00,
2013-02-14 20:41:00,57.0,41.0,30.09,NNE,30,9.0,16.0,55,-99.99,,,-99.99,,2013-02-15 02:41:00,
2013-02-14 20:50:00,57.0,40.0,30.10,NNE,20,13.0,16.0,53,-99.99,,,-99.99,,2013-02-15 02:50:00,
2013-02-14 21:21:00,57.0,40.0,30.10,NNE,20,13.0,16.0,53,-99.99,,,-99.99,,2013-02-15 03:21:00,
2013-02-14 21:31:00,57.0,40.0,30.10,NNE,20,13.0,16.0,53,-99.99,,,-99.99,,2013-02-15 03:31:00,
2013-02-14 21:41:00,57.0,40.0,30.10,NNE,20,13.0,16.0,53,-99.99,,,-99.99,,2013-02-15 03:41:00,
2013-02-14 21:50:00,57.0,39.0,30.10,NE,40,9.0,13.0,52,-99.99,,,-99.99,,2013-02-15 03:50:00,
2013-02-14 22:21:00,57.0,39.0,30.10,NE,40,9.0,13.0,52,-99.99,,,-99.99,,2013-02-15 04:21:00,
2013-02-14 22:31:00,57.0,39.0,30.10,NE,40,9.0,13.0,52,-99.99,,,-99.99,,2013-02-15 04:31:00,
2013-02-14 22:41:00,57.0,39.0,30.10,NE,40,9.0,13.0,52,-99.99,,,-99.99,,2013-02-15 04:41:00,
2013-02-14 22:50:00,56.0,40.0,30.10,NE,40,7.0,13.0,54,-99.99,,,-99.99,,2013-02-15 04:50:00,
2013-02-14 23:11:00,56.0,40.0,30.10,NE,40,7.0,13.0,54,-99.99,,,-99.99,,2013-02-15 05:11:00,
2013-02-14 23:22:00,56.0,40.0,30.10,NE,40,7.0,13.0,54,-99.99,,,-99.99,,2013-02-15 05:22:00,
2013-02-14 23:32:00,56.0,40.0,30.10,NE,40,7.0,13.0,54,-99.99,,,-99.99,,2013-02-15 05:32:00,
2013-02-14 23:41:00,56.0,40.0,30.10,NE,40,7.0,13.0,54,-99.99,,,-99.99,,2013-02-15 05:41:00,
2013-02-14 23:50:00,57.0,41.0,30.09,ENE,70,7.0,11.0,55,-99.99,,,-99.99,,2013-02-15 05:50:00,